{"data":{"norad_id":58366,"intl_designator":"2023-177R","name":"STARLINK-30892","alt_names":[],"object_type":"PAYLOAD","status":"ACTIVE","operator":null,"country":"US","launch_date":"2023-11-18","launch_site_code":"AFETR","launch_vehicle":null,"mission":null,"orbit_class":"UNKNOWN","rcs_meters":null,"size_class":null,"mass_kg":null,"dimensions":null,"purposes":["comms"],"wikipedia_slug":null,"has_3d_model":false,"image_url":null,"decayed_at":null,"tle_current":{"epoch":"2026-05-24T18:40:41.379744Z","epoch_age_seconds":90606,"freshness":"FRESH","line1":"1 58366U 23177R   26144.77825671 -.00000136  00000+0  45680-5 0  9996","line2":"2 58366  43.0019 280.9408 0001444 263.2901  96.7787 15.27568296139877","mean_motion":15.27568296,"eccentricity":0.0001444,"inclination_deg":43.0019,"raan_deg":280.9408,"arg_perigee_deg":263.2901,"mean_anomaly_deg":96.7787,"bstar":4.568e-6,"rev_number":13987,"period_min":94.267470971393,"perigee_km":482.09338191697,"apogee_km":484.07490258285,"semimajor_km":6861.2211422499,"source":"CELESTRAK","updated_at":"2026-05-25T13:38:18.609630Z"}}}